Regional Weather Roundup
Issued by NWS

Home | Current Version | Previous Version | Text Only | Print | Product List | Glossary Off
Versions: 1 2 3 4 5 6 7 8 9 10 11 12 13 14 15 16 17 18 19 20 21 22 23 24 25 26 27 28 29 30 31 32 33 34 35 36 37 38 39 40 41 42 43 44 45 46 47 48 49 50

000
ASUS43 KOAX 291210
RWRNE

WEATHER ROUNDUP FOR NEBRASKA
NATIONAL WEATHER SERVICE OMAHA NE
700 AM CDT MON JUN 29 2015

NOTES: SATELLITE DATA IS BEING USED TO AUGMENT CLOUD COVER ABOVE
       12000 FEET.
       "FAIR" INDICATES FEW OR NO CLOUDS BELOW 12,000 FEET WITH NO
       SIGNIFICANT WEATHER AND/OR OBSTRUCTIONS TO VISIBILITY.

  * THESE STATIONS DO NOT REPORT WEATHER SUCH AS RAIN...SNOW OR FOG.

NEZ001>004-019>022-054>056-291300-
NEBRASKA PANHANDLE

CITY           SKY/WX    TMP DP  RH WIND       PRES   REMARKS
SCOTTSBLUFF    CLEAR     61  55  81 CALM      30.12R
6HR MIN TEMP:  61; 6HR MAX TEMP:  71;

ALLIANCE       PTCLDY    60  57  89 E7        30.12R
6HR MIN TEMP:  58; 6HR MAX TEMP:  63; 6HR PCP: TRACE;

CHADRON        CLOUDY    64  61  90 NE10      30.13R
6HR MIN TEMP:  58; 6HR MAX TEMP:  64;

KIMBALL          N/A    N/A N/A N/A MISG        N/A
SIDNEY         MOCLDY    61  58  90 S7        30.14F
6HR MIN TEMP:  59; 6HR MAX TEMP:  67; 6HR PCP:  0.16;

$$

NEZ057>060-069>072-079>082-291300-
SOUTHWEST NEBRASKA

CITY           SKY/WX    TMP DP  RH WIND       PRES   REMARKS
NORTH PLATTE   CLEAR     57  54  89 NW3       30.10R
6HR MIN TEMP:  54; 6HR MAX TEMP:  62;

IMPERIAL       MOCLDY    61  58  90 NE6       30.10R
6HR MIN TEMP:  61; 6HR MAX TEMP:  66; 6HR PCP: TRACE;

LEXINGTON      CLEAR     57  55  93 NW7       30.07R
MCCOOK         CLEAR     60  56  86 NE3       30.07S
6HR MIN TEMP:  58; 6HR MAX TEMP:  69;

OGALLALA       PTCLDY    60  57  89 CALM      30.11R
$$

NEZ005>010-023>029-035>040-094-291300-
NORTH CENTRAL NEBRASKA

CITY           SKY/WX    TMP DP  RH WIND       PRES   REMARKS
VALENTINE      CLEAR     57  55  93 W8        30.06R
6HR MIN TEMP:  54; 6HR MAX TEMP:  62;

AINSWORTH      CLEAR     59  56  92 W6        30.06R
BROKEN BOW     CLEAR     57  54  89 CALM      30.06R
6HR MIN TEMP:  55; 6HR MAX TEMP:  59;

O`NEILL        CLOUDY    59  57  92 W3        30.02R
ORD            CLEAR     55  53  93 CALM      30.02S
6HR MIN TEMP:  53; 6HR MAX TEMP:  59;

THEDFORD       CLEAR     58  56  95 W3        30.10R
$$

NEZ041-046>049-061>064-073>077-083>087-291300-
SOUTH CENTRAL NEBRASKA

CITY           SKY/WX    TMP DP  RH WIND       PRES   REMARKS
GRAND ISLAND   CLEAR     58  54  86 W5        30.02R
6HR MIN TEMP:  57; 6HR MAX TEMP:  61;

AURORA         CLEAR     60  58  91 NW6       30.01R
HASTINGS       CLEAR     59  55  87 W5        30.02R
6HR MIN TEMP:  58; 6HR MAX TEMP:  64;

HEBRON         CLEAR     60  55  83 CALM      30.00R
HOLDREGE       CLEAR     57  53  86 CALM      30.06R
KEARNEY *      CLEAR     59  52  77 NW7       30.04R
YORK           CLEAR     61  57  88 NW8       30.00R
$$

NEZ011>018-030>034-042>045-291300-
NORTHEAST NEBRASKA

CITY           SKY/WX    TMP DP  RH WIND       PRES   REMARKS
NORFOLK        CLEAR     61  57  87 W7        29.98R
6HR MIN TEMP:  61; 6HR MAX TEMP:  65;

ALBION         CLEAR     56  52  88 N5        30.00S
BLAIR          SUNNY     64  57  79 W7        29.93S
COLUMBUS *     CLEAR     63  54  72 NW6       29.96S
FREMONT        CLEAR     64  59  83 W7        29.94S
TEKAMAH        SUNNY     65  60  84 NW6       29.92R
6HR MIN TEMP:  61; 6HR MAX TEMP:  68;

WAYNE          CLEAR     60  58  94 CALM      29.96S
$$

NEZ050>053-065>068-078-088>093-291300-
SOUTHEAST NEBRASKA

CITY           SKY/WX    TMP DP  RH WIND       PRES   REMARKS
LINCOLN        CLEAR     65  59  81 CALM      29.96R
6HR MIN TEMP:  61; 6HR MAX TEMP:  69;

OMAHA EPPLEY   MOSUNNY   67  60  78 NW5       29.92S
6HR MIN TEMP:  64; 6HR MAX TEMP:  70;

BEATRICE       CLEAR     61  59  93 CALM      29.97S
FALLS CITY     SUNNY     64  60  87 NW6       29.93R
6HR MIN TEMP:  63; 6HR MAX TEMP:  67;

NEBRASKA CITY  SUNNY     66  56  71 NW6       29.94S
PLATTSMOUTH    SUNNY     65  59  81 W6        29.94R
$$

NEZ044-045-051>053-067-291300-
OMAHA AREA

CITY           SKY/WX    TMP DP  RH WIND       PRES   REMARKS
OMAHA EPPLEY   MOSUNNY   67  60  78 NW5       29.92S
6HR MIN TEMP:  64; 6HR MAX TEMP:  70;

BLAIR          SUNNY     64  57  79 W7        29.93S
FREMONT        CLEAR     64  59  83 W7        29.94S
MILLARD        SUNNY     65  61  86 CALM      29.93R
OFFUTT AFB     SUNNY     62  60  93 S1        29.92R
PLATTSMOUTH    SUNNY     65  59  81 W6        29.94R
WAHOO          FAIR      67  60  76 NW7       29.95R
$$



USA.gov is the U.S. government's official web portal to all federal, state and local government web resources and services.